When you browse on this site, cookies collect data to enhance your experience and personalize the content and advertising you see.
Visit our Privacy Policy to learn more. By continuing to use the site, you agree to this use of cookies and data.
  • In Czech Republic
  • List of Countries
  • For 7 days
  • Water Temperature
  • Satellite Maps
  • Weather Map
  • Weather Widgets
  • user-avatar
    Login

    Hourly Weather Mazatenango

    Today, 21 July, Sunday

    Time Temperature Precipitation Wind Pressure Humidity
    00:00 +26°C° 0 mm 2 mps 726 mmHg 81%
    01:00 +25°C° 0 mm 2 mps 726 mmHg 80%
    02:00 +25°C° 0 mm 2 mps 725 mmHg 79%
    03:00 +25°C° 0 mm 2 mps 725 mmHg 78%
    04:00 +25°C° 0 mm 2 mps 725 mmHg 77%
    05:00 +25°C° 0 mm 2 mps 725 mmHg 76%
    06:00 +25°C° 0 mm 1 mps 725 mmHg 75%
    07:00 +27°C° 0 mm 1 mps 726 mmHg 71%
    08:00 +29°C° 0 mm 1 mps 726 mmHg 66%
    09:00 +31°C° 0 mm 1 mps 727 mmHg 62%
    10:00 +32°C° 0.3 mm 1 mps 727 mmHg 61%
    11:00 +34°C° 0.3 mm 2 mps 726 mmHg 59%
    12:00 +35°C° 0.3 mm 2 mps 726 mmHg 58%
    13:00 +34°C° 1 mm 2 mps 726 mmHg 62%
    14:00 +34°C° 1 mm 2 mps 725 mmHg 66%
    15:00 +32°C° 1 mm 2 mps 725 mmHg 70%
    16:00 +31°C° 0.8 mm 2 mps 725 mmHg 74%
    17:00 +30°C° 0.8 mm 2 mps 725 mmHg 79%
    18:00 +28°C° 0.8 mm 2 mps 724 mmHg 84%
    19:00 +27°C° 0 mm 2 mps 725 mmHg 84%
    20:00 +27°C° 0 mm 2 mps 726 mmHg 84%
    21:00 +26°C° 0 mm 1 mps 726 mmHg 83%
    22:00 +25°C° 0.1 mm 2 mps 726 mmHg 80%
    23:00 +25°C° 0.1 mm 2 mps 726 mmHg 78%

    Tomorrow, 22 July, Monday

    Time Temperature Precipitation Wind Pressure Humidity
    00:00 +25°C° 0.1 mm 2 mps 726 mmHg 75%
    01:00 +25°C° 0.2 mm 2 mps 726 mmHg 76%
    02:00 +24°C° 0.2 mm 2 mps 726 mmHg 77%
    03:00 +24°C° 0.2 mm 2 mps 725 mmHg 78%
    04:00 +24°C° 0.1 mm 2 mps 725 mmHg 77%
    05:00 +24°C° 0.1 mm 1 mps 726 mmHg 77%
    06:00 +24°C° 0.1 mm 1 mps 726 mmHg 76%
    07:00 +26°C° 0 mm 1 mps 726 mmHg 71%
    08:00 +28°C° 0 mm 1 mps 727 mmHg 66%
    09:00 +31°C° 0 mm 1 mps 727 mmHg 60%
    10:00 +31°C° 0.2 mm 1 mps 727 mmHg 60%
    11:00 +32°C° 0.2 mm 2 mps 727 mmHg 60%
    12:00 +34°C° 0.2 mm 2 mps 727 mmHg 60%
    13:00 +32°C° 0.6 mm 2 mps 726 mmHg 64%
    14:00 +32°C° 0.6 mm 2 mps 726 mmHg 68%
    15:00 +32°C° 0.6 mm 2 mps 725 mmHg 71%
    16:00 +31°C° 1.1 mm 1 mps 725 mmHg 76%
    17:00 +29°C° 1.1 mm 1 mps 725 mmHg 81%
    18:00 +28°C° 1.1 mm 1 mps 725 mmHg 86%
    19:00 +27°C° 0.5 mm 1 mps 726 mmHg 87%
    20:00 +26°C° 0.5 mm 1 mps 726 mmHg 88%
    21:00 +25°C° 0.5 mm 1 mps 727 mmHg 89%
    22:00 +24°C° 0.2 mm 2 mps 727 mmHg 87%
    23:00 +24°C° 0.2 mm 2 mps 727 mmHg 85%

    Day after tomorrow, 23 July, Tuesday

    Time Temperature Precipitation Wind Pressure Humidity
    00:00 +23°C° 0.2 mm 2 mps 727 mmHg 82%
    01:00 +23°C° 0.1 mm 2 mps 727 mmHg 81%
    02:00 +24°C° 0.1 mm 2 mps 727 mmHg 79%
    03:00 +24°C° 0.1 mm 2 mps 726 mmHg 77%
    04:00 +24°C° 0 mm 2 mps 726 mmHg 77%
    05:00 +24°C° 0 mm 2 mps 726 mmHg 76%
    06:00 +24°C° 0 mm 1 mps 726 mmHg 75%
    07:00 +26°C° 0 mm 1 mps 727 mmHg 71%
    08:00 +28°C° 0 mm 1 mps 728 mmHg 67%
    09:00 +30°C° 0 mm 1 mps 728 mmHg 62%
    10:00 +31°C° 0 mm 1 mps 728 mmHg 61%
    11:00 +32°C° 0 mm 2 mps 727 mmHg 60%
    12:00 +34°C° 0 mm 2 mps 727 mmHg 59%
    13:00 +32°C° 1.5 mm 2 mps 726 mmHg 67%
    14:00 +31°C° 1.5 mm 2 mps 726 mmHg 75%
    15:00 +30°C° 1.5 mm 1 mps 725 mmHg 83%
    16:00 +29°C° 0.6 mm 1 mps 725 mmHg 85%
    17:00 +29°C° 0.6 mm 1 mps 726 mmHg 87%
    18:00 +26°C° 0.6 mm 0 mps 726 mmHg 88%
    19:00 +27°C° 0.9 mm 1 mps 726 mmHg 89%
    20:00 +26°C° 0.9 mm 1 mps 727 mmHg 90%
    21:00 +25°C° 0.9 mm 1 mps 727 mmHg 91%
    22:00 +25°C° 0.5 mm 2 mps 727 mmHg 90%
    23:00 +24°C° 0.5 mm 2 mps 727 mmHg 90%

    24 July, Wednesday

    Time Temperature Precipitation Wind Pressure Humidity
    00:00 +23°C° 0.5 mm 2 mps 727 mmHg 89%
    01:00 +23°C° 0.2 mm 2 mps 727 mmHg 87%
    02:00 +23°C° 0.2 mm 2 mps 727 mmHg 84%
    03:00 +23°C° 0.2 mm 2 mps 726 mmHg 81%
    04:00 +23°C° 0.1 mm 2 mps 726 mmHg 79%
    05:00 +23°C° 0.1 mm 2 mps 726 mmHg 77%
    06:00 +23°C° 0.1 mm 2 mps 727 mmHg 75%
    07:00 +25°C° 0 mm 2 mps 727 mmHg 71%
    08:00 +27°C° 0 mm 2 mps 727 mmHg 67%
    09:00 +30°C° 0 mm 2 mps 728 mmHg 63%
    10:00 +31°C° 0 mm 2 mps 728 mmHg 61%
    11:00 +32°C° 0 mm 2 mps 727 mmHg 59%
    12:00 +34°C° 0 mm 3 mps 727 mmHg 58%
    13:00 +33°C° 0.7 mm 3 mps 726 mmHg 64%
    14:00 +32°C° 0.7 mm 2 mps 725 mmHg 70%
    15:00 +31°C° 0.7 mm 2 mps 725 mmHg 77%
    16:00 +30°C° 1.5 mm 2 mps 725 mmHg 81%
    17:00 +29°C° 1.5 mm 2 mps 725 mmHg 85%
    18:00 +28°C° 1.5 mm 1 mps 725 mmHg 89%
    19:00 +27°C° 1.1 mm 1 mps 726 mmHg 90%
    20:00 +26°C° 1.1 mm 1 mps 726 mmHg 91%
    21:00 +25°C° 1.1 mm 1 mps 727 mmHg 92%
    22:00 +25°C° 0.2 mm 2 mps 726 mmHg 91%
    23:00 +25°C° 0.2 mm 2 mps 726 mmHg 90%

    25 July, Thursday

    Time Temperature Precipitation Wind Pressure Humidity
    00:00 +24°C° 0.2 mm 2 mps 726 mmHg 89%
    01:00 +24°C° 0 mm 2 mps 726 mmHg 87%
    02:00 +24°C° 0 mm 2 mps 725 mmHg 84%
    03:00 +23°C° 0 mm 2 mps 725 mmHg 81%
    04:00 +23°C° 0 mm 2 mps 725 mmHg 77%
    05:00 +23°C° 0 mm 2 mps 725 mmHg 74%
    06:00 +23°C° 0 mm 2 mps 726 mmHg 70%
    07:00 +26°C° 0 mm 2 mps 726 mmHg 66%
    08:00 +28°C° 0 mm 2 mps 726 mmHg 62%
    09:00 +30°C° 0 mm 1 mps 727 mmHg 58%
    10:00 +31°C° 0 mm 1 mps 727 mmHg 57%
    11:00 +32°C° 0 mm 1 mps 726 mmHg 55%
    12:00 +33°C° 0 mm 1 mps 726 mmHg 54%
    13:00 +32°C° 0.6 mm 1 mps 726 mmHg 61%
    14:00 +31°C° 0.6 mm 1 mps 725 mmHg 69%
    15:00 +30°C° 0.6 mm 2 mps 725 mmHg 76%
    16:00 +29°C° 1.3 mm 1 mps 725 mmHg 81%
    17:00 +28°C° 1.3 mm 1 mps 725 mmHg 86%
    18:00 +27°C° 1.3 mm 1 mps 726 mmHg 91%
    19:00 +26°C° 0.5 mm 1 mps 726 mmHg 91%
    20:00 +26°C° 0.5 mm 1 mps 727 mmHg 91%
    21:00 +25°C° 0.5 mm 1 mps 727 mmHg 91%
    22:00 +25°C° 0.1 mm 2 mps 727 mmHg 90%
    23:00 +24°C° 0.1 mm 2 mps 727 mmHg 89%

    26 July, Friday

    Time Temperature Precipitation Wind Pressure Humidity
    00:00 +24°C° 0.1 mm 2 mps 727 mmHg 88%
    01:00 +24°C° 0.3 mm 2 mps 726 mmHg 85%
    02:00 +24°C° 0.3 mm 2 mps 726 mmHg 82%
    03:00 +24°C° 0.3 mm 1 mps 726 mmHg 79%
    04:00 +23°C° 0 mm 2 mps 726 mmHg 76%
    05:00 +23°C° 0 mm 2 mps 726 mmHg 73%
    06:00 +23°C° 0 mm 2 mps 726 mmHg 70%
    07:00 +26°C° 0 mm 1 mps 727 mmHg 66%
    08:00 +28°C° 0 mm 1 mps 727 mmHg 61%
    09:00 +30°C° 0 mm 1 mps 728 mmHg 56%
    10:00 +31°C° 0 mm 1 mps 727 mmHg 53%
    11:00 +32°C° 0 mm 2 mps 727 mmHg 50%
    12:00 +35°C° 0 mm 2 mps 727 mmHg 48%
    13:00 +34°C° 0.1 mm 2 mps 726 mmHg 51%
    14:00 +34°C° 0.1 mm 2 mps 726 mmHg 53%
    15:00 +34°C° 0.1 mm 2 mps 725 mmHg 56%
    16:00 +31°C° 0.4 mm 2 mps 726 mmHg 65%
    17:00 +30°C° 0.4 mm 1 mps 726 mmHg 75%
    18:00 +28°C° 0.4 mm 1 mps 726 mmHg 84%
    19:00 +27°C° 0.1 mm 1 mps 726 mmHg 85%
    20:00 +25°C° 0.1 mm 1 mps 727 mmHg 86%
    21:00 +24°C° 0.1 mm 2 mps 727 mmHg 87%
    22:00 +24°C° 0 mm 2 mps 727 mmHg 81%
    23:00 +24°C° 0 mm 2 mps 728 mmHg 76%
    Show more